Year,Month,Day,Hour,Minute,Value (Times are PST for temperature in C)
2014,05,17,00,00,14.50
2014,05,17,00,01,14.50
2014,05,17,00,02,14.50
2014,05,17,00,03,14.50
2014,05,17,00,04,14.50
2014,05,17,00,05,14.60
2014,05,17,00,06,14.60
2014,05,17,00,07,14.60
2014,05,17,00,08,14.60
2014,05,17,00,09,14.60
2014,05,17,00,10,14.60
2014,05,17,00,11,14.60
2014,05,17,00,12,14.60
2014,05,17,00,13,14.60
2014,05,17,00,14,14.50
2014,05,17,00,15,14.50
2014,05,17,00,16,14.50
2014,05,17,00,17,14.50
2014,05,17,00,18,14.50
2014,05,17,00,19,14.50
2014,05,17,00,20,14.50
2014,05,17,00,21,14.50
2014,05,17,00,22,14.50
2014,05,17,00,23,14.40
2014,05,17,00,24,14.40
2014,05,17,00,25,14.40
2014,05,17,00,26,14.40
2014,05,17,00,27,14.30
2014,05,17,00,28,14.30
2014,05,17,00,29,14.30
2014,05,17,00,30,14.30
2014,05,17,00,31,14.30
2014,05,17,00,32,14.30
2014,05,17,00,33,14.30
2014,05,17,00,34,14.30
2014,05,17,00,35,14.30
2014,05,17,00,36,14.30
2014,05,17,00,37,14.30
2014,05,17,00,38,14.30
2014,05,17,00,39,14.30
2014,05,17,00,40,14.30
2014,05,17,00,41,14.40
2014,05,17,00,42,14.40
2014,05,17,00,43,14.40
2014,05,17,00,44,14.40
2014,05,17,00,45,14.50
2014,05,17,00,46,14.50
2014,05,17,00,47,14.50
2014,05,17,00,48,14.50
2014,05,17,00,49,14.60
2014,05,17,00,50,14.60
2014,05,17,00,51,14.60
2014,05,17,00,52,14.60
2014,05,17,00,53,14.60
2014,05,17,00,54,14.60
2014,05,17,00,55,14.60
2014,05,17,00,56,14.60
2014,05,17,00,57,14.50
2014,05,17,00,58,14.40
2014,05,17,00,59,14.40
2014,05,17,01,00,14.30
2014,05,17,01,01,14.20
2014,05,17,01,02,14.20
2014,05,17,01,03,14.10
2014,05,17,01,04,14.00
2014,05,17,01,05,14.00
2014,05,17,01,06,13.90
2014,05,17,01,07,13.80
2014,05,17,01,08,13.80
2014,05,17,01,09,13.70
2014,05,17,01,10,13.70
2014,05,17,01,11,13.70
2014,05,17,01,12,13.60
2014,05,17,01,13,13.60
2014,05,17,01,14,13.50
2014,05,17,01,15,13.50
2014,05,17,01,16,13.50
2014,05,17,01,17,13.50
2014,05,17,01,18,13.50
2014,05,17,01,19,13.50
2014,05,17,01,20,13.50
2014,05,17,01,21,13.50
2014,05,17,01,22,13.50
2014,05,17,01,23,13.50
2014,05,17,01,24,13.50
2014,05,17,01,25,13.60
2014,05,17,01,26,13.60
2014,05,17,01,27,13.60
2014,05,17,01,28,13.60
2014,05,17,01,29,13.60
2014,05,17,01,30,13.60
2014,05,17,01,31,13.70
2014,05,17,01,32,13.70
2014,05,17,01,33,13.70
2014,05,17,01,34,13.70
2014,05,17,01,35,13.70
2014,05,17,01,36,13.70
2014,05,17,01,37,13.80
2014,05,17,01,38,13.80
2014,05,17,01,39,13.90
2014,05,17,01,40,13.90
2014,05,17,01,41,13.90
2014,05,17,01,42,14.00
2014,05,17,01,43,14.00
2014,05,17,01,44,14.00
2014,05,17,01,45,14.00
2014,05,17,01,46,14.10
2014,05,17,01,47,14.10
2014,05,17,01,48,14.10
2014,05,17,01,49,14.10
2014,05,17,01,50,14.10
2014,05,17,01,51,14.10
2014,05,17,01,52,14.10
2014,05,17,01,53,14.00
2014,05,17,01,54,14.00
2014,05,17,01,55,14.00
2014,05,17,01,56,14.00
2014,05,17,01,57,14.00
2014,05,17,01,58,14.00
2014,05,17,01,59,14.00
2014,05,17,02,00,14.00
2014,05,17,02,01,14.00
2014,05,17,02,02,14.00
2014,05,17,02,03,14.00
2014,05,17,02,04,14.00
2014,05,17,02,05,14.00
2014,05,17,02,06,14.00
2014,05,17,02,07,14.00
2014,05,17,02,08,14.00
2014,05,17,02,09,14.00
2014,05,17,02,10,14.00
2014,05,17,02,11,14.00
2014,05,17,02,12,14.00
2014,05,17,02,13,14.00
2014,05,17,02,14,14.00
2014,05,17,02,15,14.00
2014,05,17,02,16,14.00
2014,05,17,02,17,14.00
2014,05,17,02,18,14.00
2014,05,17,02,19,14.00
2014,05,17,02,20,14.00
2014,05,17,02,21,13.90
2014,05,17,02,22,13.90
2014,05,17,02,23,13.90
2014,05,17,02,24,13.80
2014,05,17,02,25,13.80
2014,05,17,02,26,13.80
2014,05,17,02,27,13.70
2014,05,17,02,28,13.70
2014,05,17,02,29,13.70
2014,05,17,02,30,13.60
2014,05,17,02,31,13.60
2014,05,17,02,32,13.60
2014,05,17,02,33,13.50
2014,05,17,02,34,13.50
2014,05,17,02,35,13.50
2014,05,17,02,36,13.40
2014,05,17,02,37,13.40
2014,05,17,02,38,13.30
2014,05,17,02,39,13.30
2014,05,17,02,40,13.30
2014,05,17,02,41,13.30
2014,05,17,02,42,13.30
2014,05,17,02,43,13.20
2014,05,17,02,44,13.20
2014,05,17,02,45,13.20
2014,05,17,02,46,13.10
2014,05,17,02,47,13.10
2014,05,17,02,48,13.10
2014,05,17,02,49,13.00
2014,05,17,02,50,13.00
2014,05,17,02,51,13.00
2014,05,17,02,52,13.00
2014,05,17,02,53,12.90
2014,05,17,02,54,12.90
2014,05,17,02,55,12.90
2014,05,17,02,56,12.90
2014,05,17,02,57,12.80
2014,05,17,02,58,12.80
2014,05,17,02,59,12.80
2014,05,17,03,00,12.80
2014,05,17,03,01,12.80
2014,05,17,03,02,12.80
2014,05,17,03,03,12.80
2014,05,17,03,04,12.80
2014,05,17,03,05,12.80
2014,05,17,03,06,12.80
2014,05,17,03,07,12.80
2014,05,17,03,08,12.70
2014,05,17,03,09,12.70
2014,05,17,03,10,12.70
2014,05,17,03,11,12.70
2014,05,17,03,12,12.70
2014,05,17,03,13,12.70
2014,05,17,03,14,12.60
2014,05,17,03,15,12.60
2014,05,17,03,16,12.60
2014,05,17,03,17,12.60
2014,05,17,03,18,12.60
2014,05,17,03,19,12.50
2014,05,17,03,20,12.50
2014,05,17,03,21,12.50
2014,05,17,03,22,12.50
2014,05,17,03,23,12.40
2014,05,17,03,24,12.40
2014,05,17,03,25,12.40
2014,05,17,03,26,12.40
2014,05,17,03,27,12.40
2014,05,17,03,28,12.30
2014,05,17,03,29,12.30
2014,05,17,03,30,12.30
2014,05,17,03,31,12.30
2014,05,17,03,32,12.30
2014,05,17,03,33,12.30
2014,05,17,03,34,12.30
2014,05,17,03,35,12.30
2014,05,17,03,36,12.30
2014,05,17,03,37,12.30
2014,05,17,03,38,12.30
2014,05,17,03,39,12.20
2014,05,17,03,40,12.20
2014,05,17,03,41,12.20
2014,05,17,03,42,12.20
2014,05,17,03,43,12.20
2014,05,17,03,44,12.10
2014,05,17,03,45,12.10
2014,05,17,03,46,12.10
2014,05,17,03,47,12.10
2014,05,17,03,48,12.10
2014,05,17,03,49,12.00
2014,05,17,03,50,12.00
2014,05,17,03,51,12.00
2014,05,17,03,52,12.00
2014,05,17,03,53,12.00
2014,05,17,03,54,12.00
2014,05,17,03,55,12.00
2014,05,17,03,56,12.00
2014,05,17,03,57,12.00
2014,05,17,03,58,12.00
2014,05,17,03,59,12.00
2014,05,17,04,00,11.90
2014,05,17,04,01,11.90
2014,05,17,04,02,11.90
2014,05,17,04,03,11.90
2014,05,17,04,04,11.90
2014,05,17,04,05,11.90
2014,05,17,04,06,11.90
2014,05,17,04,07,11.90
2014,05,17,04,08,11.90
2014,05,17,04,09,11.90
2014,05,17,04,10,11.90
2014,05,17,04,11,11.90
2014,05,17,04,12,11.90
2014,05,17,04,13,11.90
2014,05,17,04,14,11.90
2014,05,17,04,15,11.90
2014,05,17,04,16,11.90
2014,05,17,04,17,11.90
2014,05,17,04,18,11.90
2014,05,17,04,19,12.00
2014,05,17,04,20,12.00
2014,05,17,04,21,12.00
2014,05,17,04,22,12.00
2014,05,17,04,23,12.00
2014,05,17,04,24,12.00
2014,05,17,04,25,12.00
2014,05,17,04,26,12.00
2014,05,17,04,27,12.00
2014,05,17,04,28,12.00
2014,05,17,04,29,12.00
2014,05,17,04,30,12.00
2014,05,17,04,31,12.00
2014,05,17,04,32,12.10
2014,05,17,04,33,12.10
2014,05,17,04,34,12.10
2014,05,17,04,35,12.10
2014,05,17,04,36,12.10
2014,05,17,04,37,12.10
2014,05,17,04,38,12.10
2014,05,17,04,39,12.10
2014,05,17,04,40,12.10
2014,05,17,04,41,12.10
2014,05,17,04,42,12.10
2014,05,17,04,43,12.10
2014,05,17,04,44,12.10
2014,05,17,04,45,12.10
2014,05,17,04,46,12.10
2014,05,17,04,47,12.00
2014,05,17,04,48,12.00
2014,05,17,04,49,12.00
2014,05,17,04,50,12.00
2014,05,17,04,51,12.00
2014,05,17,04,52,12.00
2014,05,17,04,53,12.00
2014,05,17,04,54,12.00
2014,05,17,04,55,12.00
2014,05,17,04,56,11.90
2014,05,17,04,57,11.90
2014,05,17,04,58,11.90
2014,05,17,04,59,11.90
2014,05,17,05,00,11.90
2014,05,17,05,01,11.90
2014,05,17,05,02,11.90
2014,05,17,05,03,11.90
2014,05,17,05,04,11.90
2014,05,17,05,05,12.00
2014,05,17,05,06,12.00
2014,05,17,05,07,12.00
2014,05,17,05,08,12.00
2014,05,17,05,09,12.00
2014,05,17,05,10,12.10
2014,05,17,05,11,12.10
2014,05,17,05,12,12.10
2014,05,17,05,13,12.10
2014,05,17,05,14,12.20
2014,05,17,05,15,12.20
2014,05,17,05,16,12.20
2014,05,17,05,17,12.20
2014,05,17,05,18,12.20
2014,05,17,05,19,12.20
2014,05,17,05,20,12.20
2014,05,17,05,21,12.30
2014,05,17,05,22,12.30
2014,05,17,05,23,12.30
2014,05,17,05,24,12.30
2014,05,17,05,25,12.30
2014,05,17,05,26,12.30
2014,05,17,05,27,12.30
2014,05,17,05,28,12.30
2014,05,17,05,29,12.30
2014,05,17,05,30,12.30
2014,05,17,05,31,12.40
2014,05,17,05,32,12.40
2014,05,17,05,33,12.40
2014,05,17,05,34,12.40
2014,05,17,05,35,12.40
2014,05,17,05,36,12.40
2014,05,17,05,37,12.40
2014,05,17,05,38,12.40
2014,05,17,05,39,12.40
2014,05,17,05,40,12.40
2014,05,17,05,41,12.40
2014,05,17,05,42,12.40
2014,05,17,05,43,12.40
2014,05,17,05,44,12.40
2014,05,17,05,45,12.40
2014,05,17,05,46,12.40
2014,05,17,05,47,12.50
2014,05,17,05,48,12.50
2014,05,17,05,49,12.50
2014,05,17,05,50,12.50
2014,05,17,05,51,12.50
2014,05,17,05,52,12.50
2014,05,17,05,53,12.50
2014,05,17,05,54,12.50
2014,05,17,05,55,12.50
2014,05,17,05,56,12.50
2014,05,17,05,57,12.50
2014,05,17,05,58,12.50
2014,05,17,05,59,12.50
2014,05,17,06,00,12.50
2014,05,17,06,01,12.50
2014,05,17,06,02,12.50
2014,05,17,06,03,12.50
2014,05,17,06,04,12.50
2014,05,17,06,05,12.50
2014,05,17,06,06,12.50
2014,05,17,06,07,12.50
2014,05,17,06,08,12.50
2014,05,17,06,09,12.50
2014,05,17,06,10,12.50
2014,05,17,06,11,12.50
2014,05,17,06,12,12.50
2014,05,17,06,13,12.50
2014,05,17,06,14,12.50
2014,05,17,06,15,12.50
2014,05,17,06,16,12.50
2014,05,17,06,17,12.50
2014,05,17,06,18,12.50
2014,05,17,06,19,12.50
2014,05,17,06,20,12.50
2014,05,17,06,21,12.40
2014,05,17,06,22,12.40
2014,05,17,06,23,12.40
2014,05,17,06,24,12.40
2014,05,17,06,25,12.40
2014,05,17,06,26,12.40
2014,05,17,06,27,12.40
2014,05,17,06,28,12.40
2014,05,17,06,29,12.40
2014,05,17,06,30,12.40
2014,05,17,06,31,12.40
2014,05,17,06,32,12.40
2014,05,17,06,33,12.40
2014,05,17,06,34,12.40
2014,05,17,06,35,12.40
2014,05,17,06,36,12.50
2014,05,17,06,37,12.50
2014,05,17,06,38,12.50
2014,05,17,06,39,12.50
2014,05,17,06,40,12.50
2014,05,17,06,41,12.50
2014,05,17,06,42,12.50
2014,05,17,06,43,12.60
2014,05,17,06,44,12.60
2014,05,17,06,45,12.60
2014,05,17,06,46,12.60
2014,05,17,06,47,12.60
2014,05,17,06,48,12.70
2014,05,17,06,49,12.70
2014,05,17,06,50,12.70
2014,05,17,06,51,12.70
2014,05,17,06,52,12.70
2014,05,17,06,53,12.80
2014,05,17,06,54,12.80
2014,05,17,06,55,12.80
2014,05,17,06,56,12.80
2014,05,17,06,57,12.80
2014,05,17,06,58,12.80
2014,05,17,06,59,12.80
2014,05,17,07,00,12.80
2014,05,17,07,01,12.80
2014,05,17,07,02,12.80
2014,05,17,07,03,12.80
2014,05,17,07,04,12.90
2014,05,17,07,05,12.90
2014,05,17,07,06,12.90
2014,05,17,07,07,12.90
2014,05,17,07,08,12.90
2014,05,17,07,09,12.90
2014,05,17,07,10,12.90
2014,05,17,07,11,12.90
2014,05,17,07,12,12.90
2014,05,17,07,13,12.90
2014,05,17,07,14,12.90
2014,05,17,07,15,12.90
2014,05,17,07,16,12.90
2014,05,17,07,17,12.90
2014,05,17,07,18,12.90
2014,05,17,07,19,13.00
2014,05,17,07,20,13.00
2014,05,17,07,21,13.00
2014,05,17,07,22,13.00
2014,05,17,07,23,13.00
2014,05,17,07,24,13.00
2014,05,17,07,25,13.00
2014,05,17,07,26,13.00
2014,05,17,07,27,13.00
2014,05,17,07,28,13.00
2014,05,17,07,29,13.00
2014,05,17,07,30,13.00
2014,05,17,07,31,12.90
2014,05,17,07,32,12.90
2014,05,17,07,33,12.90
2014,05,17,07,34,12.80
2014,05,17,07,35,12.80
2014,05,17,07,36,12.80
2014,05,17,07,37,12.80
2014,05,17,07,38,12.70
2014,05,17,07,39,12.70
2014,05,17,07,40,12.60
2014,05,17,07,41,12.60
2014,05,17,07,42,12.60
2014,05,17,07,43,12.60
2014,05,17,07,44,12.50
2014,05,17,07,45,12.50
2014,05,17,07,46,12.50
2014,05,17,07,47,12.40
2014,05,17,07,48,12.40
2014,05,17,07,49,12.40
2014,05,17,07,50,12.40
2014,05,17,07,51,12.30
2014,05,17,07,52,12.30
2014,05,17,07,53,12.30
2014,05,17,07,54,12.30
2014,05,17,07,55,12.30
2014,05,17,07,56,12.30
2014,05,17,07,57,12.30
2014,05,17,07,58,12.30
2014,05,17,07,59,12.30
2014,05,17,08,00,12.30
2014,05,17,08,01,12.30
2014,05,17,08,02,12.30
2014,05,17,08,03,12.30
2014,05,17,08,04,12.30
2014,05,17,08,05,12.30
2014,05,17,08,06,12.30
2014,05,17,08,07,12.40
2014,05,17,08,08,12.40
2014,05,17,08,09,12.40
2014,05,17,08,10,12.50
2014,05,17,08,11,12.50
2014,05,17,08,12,12.50
2014,05,17,08,13,12.60
2014,05,17,08,14,12.60
2014,05,17,08,15,12.60
2014,05,17,08,16,12.70
2014,05,17,08,17,12.70
2014,05,17,08,18,12.70
2014,05,17,08,19,12.80
2014,05,17,08,20,12.80
2014,05,17,08,21,12.80
2014,05,17,08,22,12.80
2014,05,17,08,23,12.80
2014,05,17,08,24,12.80
2014,05,17,08,25,12.90
2014,05,17,08,26,12.90
2014,05,17,08,27,12.90
2014,05,17,08,28,12.90
2014,05,17,08,29,12.90
2014,05,17,08,30,13.00
2014,05,17,08,31,13.00
2014,05,17,08,32,13.00
2014,05,17,08,33,13.10
2014,05,17,08,34,13.10
2014,05,17,08,35,13.10
2014,05,17,08,36,13.20
2014,05,17,08,37,13.20
2014,05,17,08,38,13.20
2014,05,17,08,39,13.20
2014,05,17,08,40,13.20
2014,05,17,08,41,13.20
2014,05,17,08,42,13.30
2014,05,17,08,43,13.30
2014,05,17,08,44,13.30
2014,05,17,08,45,13.30
2014,05,17,08,46,13.30
2014,05,17,08,47,13.30
2014,05,17,08,48,13.30
2014,05,17,08,49,13.30
2014,05,17,08,50,13.30
2014,05,17,08,51,13.30
2014,05,17,08,52,13.40
2014,05,17,08,53,13.40
2014,05,17,08,54,13.40
2014,05,17,08,55,13.40
2014,05,17,08,56,13.40
2014,05,17,08,57,13.40
2014,05,17,08,58,13.40
2014,05,17,08,59,13.40
2014,05,17,09,00,13.50
2014,05,17,09,01,13.50
2014,05,17,09,02,13.50
2014,05,17,09,03,13.50
2014,05,17,09,04,13.50
2014,05,17,09,05,13.50
2014,05,17,09,06,13.50
2014,05,17,09,07,13.50
2014,05,17,09,08,13.50
2014,05,17,09,09,13.50
2014,05,17,09,10,13.50
2014,05,17,09,11,13.50
2014,05,17,09,12,13.60
2014,05,17,09,13,13.60
2014,05,17,09,14,13.60
2014,05,17,09,15,13.60
2014,05,17,09,16,13.60
2014,05,17,09,17,13.60
2014,05,17,09,18,13.70
2014,05,17,09,19,13.60
2014,05,17,09,20,13.60
2014,05,17,09,21,13.60
2014,05,17,09,22,13.50
2014,05,17,09,23,13.50
2014,05,17,09,24,13.50
2014,05,17,09,25,13.50
2014,05,17,09,26,13.50
2014,05,17,09,27,13.60
2014,05,17,09,28,13.60
2014,05,17,09,29,13.60
2014,05,17,09,30,13.60
2014,05,17,09,31,13.70
2014,05,17,09,32,13.70
2014,05,17,09,33,13.70
2014,05,17,09,34,13.80
2014,05,17,09,35,13.80
2014,05,17,09,36,13.80
2014,05,17,09,37,13.80
2014,05,17,09,38,13.80
2014,05,17,09,39,13.90
2014,05,17,09,40,13.90
2014,05,17,09,41,13.90
2014,05,17,09,42,13.90
2014,05,17,09,43,13.90
2014,05,17,09,44,14.00
2014,05,17,09,45,14.00
2014,05,17,09,46,14.00
2014,05,17,09,47,14.00
2014,05,17,09,48,14.00
2014,05,17,09,49,14.00
2014,05,17,09,50,14.00
2014,05,17,09,51,14.00
2014,05,17,09,52,14.10
2014,05,17,09,53,14.10
2014,05,17,09,54,14.10
2014,05,17,09,55,14.10
2014,05,17,09,56,14.10
2014,05,17,09,57,14.20
2014,05,17,09,58,14.20
2014,05,17,09,59,14.20
2014,05,17,10,00,14.20
2014,05,17,10,01,14.20
2014,05,17,10,02,14.20
2014,05,17,10,03,14.20
2014,05,17,10,04,14.20
2014,05,17,10,05,14.20
2014,05,17,10,06,14.20
2014,05,17,10,07,14.10
2014,05,17,10,08,14.10
2014,05,17,10,09,14.10
2014,05,17,10,10,14.10
2014,05,17,10,11,14.20
2014,05,17,10,12,14.20
2014,05,17,10,13,14.20
2014,05,17,10,14,14.20
2014,05,17,10,15,14.20
2014,05,17,10,16,14.30
2014,05,17,10,17,14.30
2014,05,17,10,18,14.40
2014,05,17,10,19,14.40
2014,05,17,10,20,14.40
2014,05,17,10,21,14.50
2014,05,17,10,22,14.50
2014,05,17,10,23,14.50
2014,05,17,10,24,14.50
2014,05,17,10,25,14.60
2014,05,17,10,26,14.60
2014,05,17,10,27,14.60
2014,05,17,10,28,14.60
2014,05,17,10,29,14.60
2014,05,17,10,30,14.60
2014,05,17,10,31,14.60
2014,05,17,10,32,14.60
2014,05,17,10,33,14.60
2014,05,17,10,34,14.50
2014,05,17,10,35,14.50
2014,05,17,10,36,14.50
2014,05,17,10,37,14.60
2014,05,17,10,38,14.60
2014,05,17,10,39,14.60
2014,05,17,10,40,14.60
2014,05,17,10,41,14.60
2014,05,17,10,42,14.60
2014,05,17,10,43,14.60
2014,05,17,10,44,14.60
2014,05,17,10,45,14.60
2014,05,17,10,46,14.60
2014,05,17,10,47,14.60
2014,05,17,10,48,14.60
2014,05,17,10,49,14.60
2014,05,17,10,50,14.60
2014,05,17,10,51,14.60
2014,05,17,10,52,14.60
2014,05,17,10,53,14.50
2014,05,17,10,54,14.50
2014,05,17,10,55,14.60
2014,05,17,10,56,14.60
2014,05,17,10,57,14.60
2014,05,17,10,58,14.60
2014,05,17,10,59,14.60
2014,05,17,11,00,14.60
2014,05,17,11,01,14.60
2014,05,17,11,02,14.60
2014,05,17,11,03,14.60
2014,05,17,11,04,14.70
2014,05,17,11,05,14.70
2014,05,17,11,06,14.80
2014,05,17,11,07,14.80
2014,05,17,11,08,14.90
2014,05,17,11,09,15.00
2014,05,17,11,10,15.00
2014,05,17,11,11,15.10
2014,05,17,11,12,15.20
2014,05,17,11,13,15.20
2014,05,17,11,14,15.40
2014,05,17,11,15,15.50
2014,05,17,11,16,15.60
2014,05,17,11,17,15.80
2014,05,17,11,18,15.80
2014,05,17,11,19,15.80
2014,05,17,11,20,15.90
2014,05,17,11,21,15.90
2014,05,17,11,22,16.00
2014,05,17,11,23,16.00
2014,05,17,11,24,15.90
2014,05,17,11,25,15.90
2014,05,17,11,26,15.90
2014,05,17,11,27,15.90
2014,05,17,11,28,16.00
2014,05,17,11,29,16.10
2014,05,17,11,30,16.10
2014,05,17,11,31,16.10
2014,05,17,11,32,16.10
2014,05,17,11,33,16.10
2014,05,17,11,34,16.10
2014,05,17,11,35,16.10
2014,05,17,11,36,16.10
2014,05,17,11,37,16.20
2014,05,17,11,38,16.20
2014,05,17,11,39,16.30
2014,05,17,11,40,16.40
2014,05,17,11,41,16.40
2014,05,17,11,42,16.60
2014,05,17,11,43,16.60
2014,05,17,11,44,16.70
2014,05,17,11,45,16.70
2014,05,17,11,46,16.80
2014,05,17,11,47,16.80
2014,05,17,11,48,16.80
2014,05,17,11,49,16.80
2014,05,17,11,50,16.90
2014,05,17,11,51,16.90
2014,05,17,11,52,16.90
2014,05,17,11,53,16.90
2014,05,17,11,54,16.90
2014,05,17,11,55,16.90
2014,05,17,11,56,16.90
2014,05,17,11,57,16.90
2014,05,17,11,58,16.90
2014,05,17,11,59,16.90
2014,05,17,12,00,16.90
2014,05,17,12,01,16.90
2014,05,17,12,02,16.90
2014,05,17,12,03,16.80
2014,05,17,12,04,16.80
2014,05,17,12,05,16.80
2014,05,17,12,06,16.80
2014,05,17,12,07,16.80
2014,05,17,12,08,16.90
2014,05,17,12,09,16.90
2014,05,17,12,10,16.90
2014,05,17,12,11,16.90
2014,05,17,12,12,16.90
2014,05,17,12,13,16.90
2014,05,17,12,14,17.00
2014,05,17,12,15,17.10
2014,05,17,12,16,17.20
2014,05,17,12,17,17.30
2014,05,17,12,18,17.30
2014,05,17,12,19,17.30
2014,05,17,12,20,17.40
2014,05,17,12,21,17.50
2014,05,17,12,22,17.50
2014,05,17,12,23,17.50
2014,05,17,12,24,17.50
2014,05,17,12,25,17.40
2014,05,17,12,26,17.40
2014,05,17,12,27,17.30
2014,05,17,12,28,17.40
2014,05,17,12,29,17.40
2014,05,17,12,30,17.40
2014,05,17,12,31,17.40
2014,05,17,12,32,17.40
2014,05,17,12,33,17.30
2014,05,17,12,34,17.40
2014,05,17,12,35,17.40
2014,05,17,12,36,17.50
2014,05,17,12,37,17.60
2014,05,17,12,38,17.70
2014,05,17,12,39,17.70
2014,05,17,12,40,17.60
2014,05,17,12,41,17.60
2014,05,17,12,42,17.50
2014,05,17,12,43,17.50
2014,05,17,12,44,17.50
2014,05,17,12,45,17.50
2014,05,17,12,46,17.50
2014,05,17,12,47,17.40
2014,05,17,12,48,17.50
2014,05,17,12,49,17.40
2014,05,17,12,50,17.40
2014,05,17,12,51,17.30
2014,05,17,12,52,17.40
2014,05,17,12,53,17.40
2014,05,17,12,54,17.30
2014,05,17,12,55,17.30
2014,05,17,12,56,17.30
2014,05,17,12,57,17.30
2014,05,17,12,58,17.40
2014,05,17,12,59,17.40
2014,05,17,13,00,17.50
2014,05,17,13,01,17.50
2014,05,17,13,02,17.60
2014,05,17,13,03,17.60
2014,05,17,13,04,17.70
2014,05,17,13,05,17.70
2014,05,17,13,06,17.70
2014,05,17,13,07,17.80
2014,05,17,13,08,17.80
2014,05,17,13,09,17.90
2014,05,17,13,10,17.90
2014,05,17,13,11,17.90
2014,05,17,13,12,18.00
2014,05,17,13,13,18.10
2014,05,17,13,14,18.20
2014,05,17,13,15,18.20
2014,05,17,13,16,18.20
2014,05,17,13,17,18.20
2014,05,17,13,18,18.20
2014,05,17,13,19,18.20
2014,05,17,13,20,18.20
2014,05,17,13,21,18.10
2014,05,17,13,22,17.90
2014,05,17,13,23,17.90
2014,05,17,13,24,17.90
2014,05,17,13,25,17.90
2014,05,17,13,26,17.80
2014,05,17,13,27,17.80
2014,05,17,13,28,17.70
2014,05,17,13,29,17.60
2014,05,17,13,30,17.50
2014,05,17,13,31,17.50
2014,05,17,13,32,17.40
2014,05,17,13,33,17.40
2014,05,17,13,34,17.40
2014,05,17,13,35,17.40
2014,05,17,13,36,17.40
2014,05,17,13,37,17.30
2014,05,17,13,38,17.30
2014,05,17,13,39,17.30
2014,05,17,13,40,17.20
2014,05,17,13,41,17.10
2014,05,17,13,42,17.10
2014,05,17,13,43,17.00
2014,05,17,13,44,17.00
2014,05,17,13,45,17.00
2014,05,17,13,46,17.10
2014,05,17,13,47,17.10
2014,05,17,13,48,17.20
2014,05,17,13,49,17.30
2014,05,17,13,50,17.30
2014,05,17,13,51,17.40
2014,05,17,13,52,17.50
2014,05,17,13,53,17.50
2014,05,17,13,54,17.50
2014,05,17,13,55,17.60
2014,05,17,13,56,17.60
2014,05,17,13,57,17.60
2014,05,17,13,58,17.70
2014,05,17,13,59,17.70
2014,05,17,14,00,17.80
2014,05,17,14,01,17.70
2014,05,17,14,02,17.70
2014,05,17,14,03,17.80
2014,05,17,14,04,17.80
2014,05,17,14,05,17.70
2014,05,17,14,06,17.60
2014,05,17,14,07,17.50
2014,05,17,14,08,17.50
2014,05,17,14,09,17.40
2014,05,17,14,10,17.40
2014,05,17,14,11,17.30
2014,05,17,14,12,17.30
2014,05,17,14,13,17.30
2014,05,17,14,14,17.30
2014,05,17,14,15,17.30
2014,05,17,14,16,17.20
2014,05,17,14,17,17.10
2014,05,17,14,18,17.10
2014,05,17,14,19,17.10
2014,05,17,14,20,17.10
2014,05,17,14,21,17.10
2014,05,17,14,22,17.00
2014,05,17,14,23,17.00
2014,05,17,14,24,17.10
2014,05,17,14,25,17.10
2014,05,17,14,26,17.10
2014,05,17,14,27,17.10
2014,05,17,14,28,17.20
2014,05,17,14,29,17.30
2014,05,17,14,30,17.30
2014,05,17,14,31,17.40
2014,05,17,14,32,17.50
2014,05,17,14,33,17.50
2014,05,17,14,34,17.40
2014,05,17,14,35,17.40
2014,05,17,14,36,17.50
2014,05,17,14,37,17.40
2014,05,17,14,38,17.30
2014,05,17,14,39,17.20
2014,05,17,14,40,17.00
2014,05,17,14,41,16.90
2014,05,17,14,42,16.70
2014,05,17,14,43,16.70
2014,05,17,14,44,16.60
2014,05,17,14,45,16.60
2014,05,17,14,46,16.60
2014,05,17,14,47,16.60
2014,05,17,14,48,16.60
2014,05,17,14,49,16.60
2014,05,17,14,50,16.70
2014,05,17,14,51,16.70
2014,05,17,14,52,16.70
2014,05,17,14,53,16.70
2014,05,17,14,54,16.70
2014,05,17,14,55,16.70
2014,05,17,14,56,16.70
2014,05,17,14,57,16.70
2014,05,17,14,58,16.60
2014,05,17,14,59,16.60
2014,05,17,15,00,16.60
2014,05,17,15,01,16.60
2014,05,17,15,02,16.60
2014,05,17,15,03,16.60
2014,05,17,15,04,16.60
2014,05,17,15,05,16.60
2014,05,17,15,06,16.40
2014,05,17,15,07,16.40
2014,05,17,15,08,16.40
2014,05,17,15,09,16.40
2014,05,17,15,10,16.40
2014,05,17,15,11,16.40
2014,05,17,15,12,16.40
2014,05,17,15,13,16.40
2014,05,17,15,14,16.40
2014,05,17,15,15,16.50
2014,05,17,15,16,16.60
2014,05,17,15,17,16.70
2014,05,17,15,18,16.70
2014,05,17,15,19,16.80
2014,05,17,15,20,16.90
2014,05,17,15,21,16.90
2014,05,17,15,22,17.00
2014,05,17,15,23,17.00
2014,05,17,15,24,17.10
2014,05,17,15,25,17.20
2014,05,17,15,26,17.30
2014,05,17,15,27,17.30
2014,05,17,15,28,17.30
2014,05,17,15,29,17.30
2014,05,17,15,30,17.30
2014,05,17,15,31,17.30
2014,05,17,15,32,17.30
2014,05,17,15,33,17.20
2014,05,17,15,34,17.10
2014,05,17,15,35,17.00
2014,05,17,15,36,16.90
2014,05,17,15,37,16.90
2014,05,17,15,38,16.80
2014,05,17,15,39,16.70
2014,05,17,15,40,16.70
2014,05,17,15,41,16.50
2014,05,17,15,42,16.40
2014,05,17,15,43,16.30
2014,05,17,15,44,16.30
2014,05,17,15,45,16.20
2014,05,17,15,46,16.20
2014,05,17,15,47,16.30
2014,05,17,15,48,16.30
2014,05,17,15,49,16.30
2014,05,17,15,50,16.30
2014,05,17,15,51,16.30
2014,05,17,15,52,16.20
2014,05,17,15,53,16.10
2014,05,17,15,54,16.10
2014,05,17,15,55,16.00
2014,05,17,15,56,15.90
2014,05,17,15,57,15.80
2014,05,17,15,58,15.80
2014,05,17,15,59,15.80
2014,05,17,16,00,15.70
2014,05,17,16,01,15.70
2014,05,17,16,02,15.80
2014,05,17,16,03,15.90
2014,05,17,16,04,16.00
2014,05,17,16,05,16.10
2014,05,17,16,06,16.20
2014,05,17,16,07,16.30
2014,05,17,16,08,16.40
2014,05,17,16,09,16.50
2014,05,17,16,10,16.70
2014,05,17,16,11,16.80
2014,05,17,16,12,17.00
2014,05,17,16,13,17.10
2014,05,17,16,14,17.10
2014,05,17,16,15,17.20
2014,05,17,16,16,17.20
2014,05,17,16,17,17.20
2014,05,17,16,18,17.30
2014,05,17,16,19,17.30
2014,05,17,16,20,17.40
2014,05,17,16,21,17.50
2014,05,17,16,22,17.60
2014,05,17,16,23,17.70
2014,05,17,16,24,17.80
2014,05,17,16,25,17.90
2014,05,17,16,26,17.90
2014,05,17,16,27,18.00
2014,05,17,16,28,18.10
2014,05,17,16,29,18.00
2014,05,17,16,30,17.90
2014,05,17,16,31,17.90
2014,05,17,16,32,17.90
2014,05,17,16,33,17.90
2014,05,17,16,34,17.90
2014,05,17,16,35,17.90
2014,05,17,16,36,17.90
2014,05,17,16,37,17.90
2014,05,17,16,38,17.90
2014,05,17,16,39,17.80
2014,05,17,16,40,17.80
2014,05,17,16,41,17.80
2014,05,17,16,42,17.80
2014,05,17,16,43,17.80
2014,05,17,16,44,17.80
2014,05,17,16,45,17.80
2014,05,17,16,46,17.80
2014,05,17,16,47,17.70
2014,05,17,16,48,17.70
2014,05,17,16,49,17.70
2014,05,17,16,50,17.80
2014,05,17,16,51,17.80
2014,05,17,16,52,17.80
2014,05,17,16,53,17.70
2014,05,17,16,54,17.70
2014,05,17,16,55,17.70
2014,05,17,16,56,17.70
2014,05,17,16,57,17.70
2014,05,17,16,58,17.80
2014,05,17,16,59,17.80
2014,05,17,17,00,17.90
2014,05,17,17,01,17.90
2014,05,17,17,02,18.00
2014,05,17,17,03,18.10
2014,05,17,17,04,18.10
2014,05,17,17,05,18.10
2014,05,17,17,06,18.20
2014,05,17,17,07,18.20
2014,05,17,17,08,18.20
2014,05,17,17,09,18.20
2014,05,17,17,10,18.20
2014,05,17,17,11,18.10
2014,05,17,17,12,18.10
2014,05,17,17,13,18.10
2014,05,17,17,14,18.10
2014,05,17,17,15,18.10
2014,05,17,17,16,18.20
2014,05,17,17,17,18.20
2014,05,17,17,18,18.20
2014,05,17,17,19,18.20